AirNav   Everest Fuels
 
 925 users online  

N40 Sky Manor Airport
Pittstown, New Jersey, USA

GOING TO PITTSTOWN?


FAA INFORMATION EFFECTIVE 03 NOVEMBER 2022

Location

FAA Identifier: N40
Lat/Long: 40-33-57.1760N 074-58-45.5090W
40-33.952933N 074-58.758483W
40.5658822,-74.9793081
(estimated)
Elevation: 560 ft. / 171 m (estimated)
Variation: 13W (2010)
From city: 2 miles SW of PITTSTOWN, NJ
Time zone: UTC -5 (UTC -4 during Daylight Saving Time)
Zip code: 08867

Airport Operations

Airport use: Open to the public
Activation date: 03/1947
Control tower: no
ARTCC: NEW YORK CENTER
FSS: MILLVILLE FLIGHT SERVICE STATION
NOTAMs facility: MIV (NOTAM-D service available)
Attendance: CONTINUOUS
Wind indicator: yes
Segmented circle: no
Lights: ACTVT REIL RWY 07 & 25; MIRL RWY 07/25; TWY LGTS - CTAF. PAPI RWY 07 & 25 OPR CONSLY.

Airport Communications

CTAF/UNICOM: 122.975
WX AWOS-3: 121.725
ALLENTOWN APPROACH: 119.65 ;3000 FT & BLW 124.45 ;ABV 3000 FT
ALLENTOWN DEPARTURE: 119.65 ;3000 FT & BLW 124.45 ;ABV 3000 FT
IC: 119.65 ;3000 FT & BLW 124.45 ;ABV 3000 FT
WX ASOS at SMQ (15 nm E): 120.6 (908-722-2139)
WX ASOS at DYL (15 nm SW): 118.875 (215-345-0392)
WX AWOS-3 at CKZ (18 nm SW): 126.325 (215-257-7291)
WX ASOS at TTN (19 nm SE): 126.775 (609-538-8690)
WX AWOS-3 at UKT (20 nm SW): 119.475 (215-538-7610)

Nearby radio navigation aids

VOR radial/distance  VOR name  Freq  Var
SBJr275/10.9SOLBERG VOR/DME112.9010W
BWZr218/15.7BROADWAY VOR/DME114.2011W
ARDr000/19.0YARDLEY VOR/DME108.2010W
FJCr124/23.7ALLENTOWN VORTAC117.5010W
STWr202/26.3STILLWATER VOR/DME109.6011W
RBVr325/31.1ROBBINSVILLE VORTAC113.8010W
ETXr101/32.1EAST TEXAS VOR/DME110.2009W
PTWr061/33.6POTTSTOWN VORTAC116.5009W
SAXr225/36.2SPARTA VORTAC115.7011W
GXUr344/37.7MC GUIRE VORTAC110.6012W

 
NDB name  Hdg/Dist  Freq  Var  ID
CHATHAM260/27.125413WCAT -.-. .- -

Airport Services

Fuel available: 100LL
Parking: hangars and tiedowns
Airframe service: MAJOR
Powerplant service: MAJOR
Bottled oxygen: NONE
Bulk oxygen: NONE

Runway Information

Runway 7/25

Dimensions: 2900 x 50 ft. / 884 x 15 m
Surface: asphalt, in good condition
Runway edge lights: medium intensity
RUNWAY 7  RUNWAY 25
Latitude: 40-33.813333N40-34.092533N
Longitude: 074-59.012667W074-58.504300W
Elevation: 548.0 ft.558.0 ft.
Traffic pattern: leftleft
Runway heading: 067 magnetic, 054 true247 magnetic, 234 true
Markings: nonprecision, in good conditionnonprecision, in good condition
Visual slope indicator: 2-light PAPI on left (4.00 degrees glide path)
UNUSBL BYD 4 DEGS RIGHT OF CNTRLN.
2-light PAPI on left (4.00 degrees glide path)
Runway end identifier lights: yesyes
Touchdown point: yes, no lightsyes, no lights
Obstructions: 93 ft. trees, 1020 ft. from runway, 360 ft. right of centerline, 9:1 slope to clear99 ft. pline, lighted, 2070 ft. from runway, 210 ft. left of centerline, 18:1 slope to clear
13 FT T-HANGARS 80 FT FM THR 215 FT RIGHT.

Airport Ownership and Management from official FAA records

Ownership: Privately-owned
Owner: SKY MANOR AIRPORT PARTNERS LLC
PO BOX 56
PITTSTOWN, NJ 08867
Phone 908-996-4200
Manager: SKY MANOR AIRPORT PARTNERS LCC
PO BOX 56
PITTSTOWN, NJ 08867
Phone 908-996-4200

Airport Operational Statistics

Aircraft based on the field: 108
Single engine airplanes: 100
Multi engine airplanes: 3
Helicopters: 3
Ultralights: 2
    
Aircraft operations: avg 62/day *
73% local general aviation
27% transient general aviation
<1% air taxi
* for 12-month period ending 20 August 2020

Additional Remarks

HELICOPTER ACTIVITY ON & INVOF ARPT.
APN MAIN RAMP CLSD TO HEL AIR TAX AND HOVER OPS NEAR FUEL PUMP.
DEER & BIRDS ON & INVOF ARPT.
SELF-SERVE FUEL SYSTEM ON NORTH END OF TIE-DOWN RAMP.
FOR CD CTC ALLENTOWN APCH AT 800-728-6322.
AVOID OVERFLIGHT OF HORSE FARM (STABLES) 500 FT N OF ACFT HNGRS.
RWY 07 NOISE ABATEMENT PROCEDURES VFR DEP FLY RWY HDG UNTIL REACHING AT LEAST 1300FT MSL.
RWY 25 NOISE ABATEMENT PROCEDURES VFR DEP SAFETY PERMITTING AT DEP END OF RWY TURN RIGHT FLY HDG 270 UNTIL REACHING AT LEAST 1300FT MSL.

Instrument Procedures

NOTE: All procedures below are presented as PDF files. If you need a reader for these files, you should download the free Adobe Reader.

NOT FOR NAVIGATION. Please procure official charts for flight.
FAA instrument procedures published for use from 03 November 2022 at 0901Z to 01 December 2022 at 0900Z.

 
IAPs - Instrument Approach Procedures
RNAV (GPS) RWY 07 **CHANGED**   download (167KB)
RNAV (GPS) RWY 25 **CHANGED**   download (168KB)
VOR RWY 07 **CHANGED**   download (185KB)
NOTE: Special Alternate Minimums apply   download (126KB)
NOTE: Special Take-Off Minimums/Departure Procedures apply   download (150KB)

Other nearby airports with instrument procedures:

N85 - Alexandria Airport (2 nm NW)
N51 - Solberg/Hunterdon Airport (11 nm E)
KSMQ - Somerset Airport (15 nm E)
KDYL - Doylestown Airport (15 nm SW)
N43 - Braden Airpark (16 nm NW)
47N - Central Jersey Regional Airport (18 nm E)
39N - Princeton Airport (18 nm SE)
KCKZ - Pennridge Airport (18 nm SW)
KTTN - Trenton Mercer Airport (19 nm SE)
KUKT - Quakertown Airport (20 nm SW)
 
Loc | Ops | Rwys | IFR | FBO | Links
Com | Nav | Svcs | Stats | Notes
Area around N40 (Sky Manor Airport)
 
Road maps at: MapQuest Bing Google
 
Aerial photo
WARNING: Photo may not be current or correct
Aerial photo of N40 (Sky Manor Airport)
Photo taken 30-Jul-2017
looking southwest.

Do you have a better or more recent aerial photo of Sky Manor Airport that you would like to share? If so, please send us your photo.

 
Sectional chart

 
Airport distance calculator
Flying to Sky Manor Airport? Find the distance to fly.

From to N40

Sunrise and sunset
Times for 30-Nov-2022
 Local
(UTC-5)
 Zulu
(UTC)
Morning civil twilight06:3411:34
Sunrise07:0412:04
Sunset16:3321:33
Evening civil twilight17:0322:03

Current date and time
Zulu (UTC)  01-Dec-2022 01:17:52
Local (UTC-5)  30-Nov-2022 20:17:52
 
METAR
KSMQ 
15nm E 
ASOS 120.60 908-722-2139
010053Z AUTO 29007G17KT 270V340 10SM BKN110 08/00 A2981 RMK AO2 SLP096 T00830000
KDYL 
15nm SW 
010054Z AUTO 28009KT 240V310 10SM FEW039 BKN100 08/M01 A2986 RMK AO2 SLP114 T00781006 $
KCKZ 
18nm SW 
010055Z AUTO 28013G23KT 240V300 10SM FEW042 06/M02 A2988 RMK AO2
KTTN 
19nm SE 
ASOS 133.70 609-538-8690
010053Z 30012G23KT 10SM BKN090 OVC110 08/M02 A2985 RMK AO2 SLP101 T00831017
KUKT 
20nm SW 
010055Z AUTO 27010KT 10SM CLR 06/M02 A2987 RMK A01
KABE 
22nm W 
010051Z 28011G19KT 10SM CLR 05/M04 A2987 RMK AO2 PK WND 28030/0017 SLP117 T00501039
KXLL 
23nm W 
010055Z AUTO 27013G20KT 10SM CLR 06/M02 A2990 RMK AO2
KMMU 
29nm NE 
010048Z 30014G26KT 10SM BKN080 OVC090 09/02 A2980
KLOM 
29nm SW 
010055Z AUTO 30011G17KT 10SM SCT100 07/M02 A2988 RMK AO2 T00721023
KPNE 
29nm S 
010054Z 29011G24KT 10SM BKN100 09/M03 A2988 RMK AO2 PK WND 31030/0018 SLP120 T00891028
TAF
KTTN 
19nm SE 
301858Z 3019/0118 19018G28KT 3SM -RA BR OVC008 TEMPO 3019/3021 2SM RA BR BKN004 FM302100 25018G36KT 4SM -RA BR OVC008 TEMPO 3022/3023 2SM +RA BR FM302300 28017G34KT P6SM SCT040 FM010400 27012G23KT P6SM SCT040
KABE 
22nm W 
301730Z 3018/0118 19015G28KT 4SM -SHRA BR OVC008 FM302000 22019G30KT 6SM -SHRA BR OVC008 TEMPO 3020/3021 2SM +RA FM302100 27018G35KT 6SM -SHRA BR OVC030 FM302200 27018G35KT P6SM BKN070 FM010300 27014G27KT P6SM SCT035
NOTAMs
Click for the latest NOTAMs
NOTAMs are issued by the DoD/FAA and will open in a separate window not controlled by AirNav.

 

 
 

FBO, Fuel Providers, and Aircraft Ground Support

  
 Business Name 
 
 Contact 
 
 Services / Description 
 
Fuel Prices
 
Comments
  
 Sky Manor Airport
908-996-4200
[web site]
[email]
Airport management, Aviation fuel, Aircraft parking (ramp or tiedown), Hangars, Flight training, Aircraft rental, Aerial tours / aerial sightseeing, Aircraft maintenance, ...

More info about Sky Manor Airport
Titan
100LL
SS $5.60 
 Updated 28-Nov-2022
 
   write
SS=Self service
Update Fuel Prices
 

Would you like to see your business listed on this page?

 If your business provides an interesting product or service to pilots, flight crews, aircraft, or users of the Sky Manor Airport, you should consider listing it here.  To start the listing process, click on the button below
 
Add a business
 

Other Pages about Sky Manor Airport

www.skymanorairport.com
 
Update a link
 
Copyright © AirNav, LLC. All rights reserved. Privacy Policy  Contact